CAPE
1 0 1 1 1 1 1 0 0 0 0 0 0 0 0 0 0 0 0 0 0 0 0 0 0 0 0 0 0 0 0 0 0 0 0 0 0 0 4 82 344 511 445 398 214 131 131
0 0 0 0 1 1 1 1 0 0 0 0 0 0 0 0 0 0 0 0 0 0 0 0 0 0 0 0 0 0 0 0 0 0 0 0 0 0 0 81 416 468 564 435 340 192 89
0 0 0 0 1 1 1 1 1 0 0 0 0 0 0 0 0 0 0 0 0 0 0 0 0 0 0 0 0 0 0 0 0 0 0 0 0 0 1 325 557 547 544 359 374 382 24
0 0 0 1 0 1 1 1 2 1 0 0 0 0 0 0 0 0 0 0 0 0 0 0 0 0 0 0 0 0 0 0 0 0 0 0 0 0 3 480 633 551 429 134 463 304 167
0 0 0 2 3 1 1 0 1 1 1 0 0 0 0 0 0 0 0 0 0 0 0 0 0 0 0 0 0 0 0 0 0 0 0 0 0 0 36 260 435 411 117 264 432 592 221
0 0 1 1 1 1 1 1 1 1 1 0 0 0 0 0 0 0 0 0 0 0 0 0 0 0 0 0 0 0 0 0 0 0 0 0 0 0 2 40 28 3 259 149 433 507 356
1 1 1 1 1 1 1 1 1 1 1 1 0 0 0 0 0 0 0 0 0 0 0 0 0 0 0 0 0 0 0 0 0 0 0 0 0 0 20 57 21 176 4 25 190 523 350
2 1 2 1 1 1 1 0 0 0 0 1 0 0 0 0 0 0 0 0 0 0 0 0 0 0 0 0 0 0 0 0 0 0 0 0 0 0 5 4 23 35 84 9 28 452 522
0 0 1 1 1 1 1 1 0 0 0 0 0 0 0 0 0 0 0 0 0 0 0 0 0 0 0 0 0 0 0 0 0 0 0 0 0 0 0 0 13 53 58 9 2 70 335
0 0 0 0 1 1 1 0 0 0 0 0 0 0 0 0 0 0 0 0 0 0 0 0 0 0 0 0 0 0 0 0 0 0 0 0 0 0 0 0 0 22 4 12 0 0 96
0 0 0 0 0 1 0 0 0 0 0 0 0 0 0 0 0 0 0 0 0 0 0 0 0 0 0 0 0 0 0 0 0 0 0 0 0 0 0 0 0 6 0 1 0 0 113
0 0 0 0 0 0 0 0 0 0 0 0 0 0 0 0 0 0 0 0 0 0 0 0 0 0 0 0 0 0 0 0 0 0 0 0 0 0 0 0 0 0 0 9 2 1 121
0 0 0 0 0 0 0 1 0 0 0 0 0 0 0 0 0 0 0 0 0 0 0 0 0 0 0 0 0 0 0 0 0 0 0 0 0 0 0 0 0 0 0 31 17 27 100
0 0 0 0 0 0 2 1 1 0 0 0 0 0 0 0 0 0 0 0 0 0 0 0 0 0 0 0 0 0 0 0 0 0 0 0 0 0 0 0 0 0 0 31 68 46 31
0 0 1 0 0 0 0 2 1 0 0 0 0 0 0 0 0 0 0 0 0 0 0 0 0 0 0 0 0 0 0 0 0 0 0 0 0 0 0 0 0 0 0 0 8 54 53
0 0 1 0 0 0 0 0 0 0 0 0 0 0 0 0 0 0 0 0 0 0 0 0 0 0 0 0 0 0 0 0 0 0 0 5 6 0 0 0 0 10 6 3 24 66 76
0 0 1 1 1 0 0 0 0 0 0 0 0 0 0 0 0 0 0 0 0 0 0 0 0 0 0 0 0 0 0 2 0 0 0 0 0 0 0 0 0 0 0 0 1 17 35
0 0 0 1 1 1 0 0 0 0 0 0 0 0 0 0 0 0 0 0 0 0 0 0 0 0 0 0 0 2 3 9 0 0 0 0 11 31 0 0 0 15 1 0 3 0 2
0 0 0 1 0 1 0 0 0 0 0 0 0 0 0 0 0 0 0 0 0 0 0 0 0 0 0 0 0 0 0 5 15 0 0 0 0 11 9 8 0 0 2 5 16 26 45
1 0 0 0 0 0 0 0 0 0 0 0 0 0 0 0 0 0 0 0 0 0 0 0 0 0 0 0 0 0 0 3 0 0 0 0 10 0 20 68 9 0 0 9 11 20 13
1 0 0 0 0 0 0 0 0 0 0 0 0 0 0 0 0 0 0 0 0 0 0 0 0 0 0 0 0 0 0 4 0 0 0 0 0 6 9 0 29 44 16 14 17 13 23
1 1 0 0 0 0 0 0 0 0 0 0 0 0 0 0 0 0 0 0 0 0 0 0 0 0 0 0 0 0 1 0 12 25 8 0 0 0 4 82 16 12 30 28 24 33 28
0 1 2 2 1 0 0 0 0 0 0 0 1 0 0 0 0 0 0 0 0 0 0 0 0 2 4 6 4 0 1 11 35 32 60 48 52 49 29 70 80 17 22 22 21 23 30
2 3 4 2 0 0 0 0 0 0 0 1 1 0 0 0 0 0 0 0 0 0 0 0 0 3 4 0 0 0 0 0 0 1 30 82 77 80 54 41 36 91 37 10 10 12 22
1 4 2 0 2 0 3 3 3 0 0 2 11 5 1 0 0 0 1 0 0 0 0 0 0 0 0 0 0 0 0 0 0 0 0 49 70 74 78 57 45 90 21 7 0 0 8
5 3 5 3 2 0 5 17 8 0 0 4 5 6 15 1 1 4 8 9 2 1 4 3 0 0 0 0 1 3 0 8 2 0 22 38 41 70 40 61 23 57 33 7 0 0 0
1 0 1 2 1 0 2 18 15 3 0 0 23 26 22 5 0 0 1 5 17 19 7 5 16 1 0 0 0 3 23 47 66 48 21 55 56 47 65 81 55 15 4 10 0 4 23
0 0 0 0 1 0 0 14 3 0 0 2 18 36 23 10 1 1 3 7 5 4 8 17 11 3 0 23 32 38 62 72 140 105 74 89 31 64 78 82 59 43 77 64 2 67 0
0 0 1 0 1 1 0 2 19 7 0 0 12 25 28 5 0 0 0 0 1 6 10 0 5 3 40 136 173 262 82 219 315 211 234 73 31 47 94 78 142 48 29 81 4 36 0
CIN
-0 -0 -0 -0 -0 -0 -0 -0 -0 -0 -0 -0 -0 -0 -0 -0 -0 -0 -0 -0 -0 -0 -0 -0 -0 -0 -0 -0 -0 -0 -0 -0 -0 -0 -0 -0 -0 -0 -6 -2 -2 -2 -2 -0 -6 -42 -44
-0 -0 -0 -0 -0 -0 -0 -0 -0 -0 -0 -0 -0 -0 -0 -0 -0 -0 -0 -0 -0 -0 -0 -0 -0 -0 -0 -0 -0 -0 -0 -0 -0 -0 -0 -0 -0 -0 -0 -24 -3 -3 -1 -1 -0 -4 -36
-0 -0 -0 -0 -0 -0 -0 -0 -0 -0 -0 -0 -0 -0 -0 -0 -0 -0 -0 -0 -0 -0 -0 -0 -0 -0 -0 -0 -0 -0 -0 -0 -0 -0 -0 -0 -0 -0 -0 -2 -3 -9 -1 -1 -1 -1 -37
-0 -0 -0 -0 -0 -0 -0 -0 -0 -0 -0 -0 -0 -0 -0 -0 -0 -0 -0 -0 -0 -0 -0 -0 -0 -0 -0 -0 -0 -0 -0 -0 -0 -0 -0 -0 -0 -0 -3 -2 -1 -5 -8 -6 -2 -2 -30
-0 -0 -0 -0 -0 -0 -0 -0 -0 -0 -0 -0 -0 -0 -0 -0 -0 -0 -0 -0 -0 -0 -0 -0 -0 -0 -0 -0 -0 -0 -0 -0 -0 -0 -0 -0 -0 -0 -1 -4 -3 -4 -17 -2 -5 -0 -29
-0 -0 -0 -0 -0 -0 -0 -0 -0 -0 -0 -0 -0 -0 -0 -0 -0 -0 -0 -0 -0 -0 -0 -0 -0 -0 -0 -0 -0 -0 -0 -0 -0 -0 -0 -0 -0 -0 -5 -4 -33 -6 -7 -3 -9 -3 -3
-1 -1 -0 -0 -0 -0 -0 -0 -0 -0 -0 -0 -0 -0 -0 -0 -0 -0 -0 -0 -0 -0 -0 -0 -0 -0 -0 -0 -0 -0 -0 -0 -0 -0 -0 -0 -0 -0 -5 -6 -25 -6 -59 -3 -2 -4 -2
-2 -1 -1 -1 -1 -0 -0 -0 -0 -0 -1 -0 -0 -0 -0 -0 -0 -0 -0 -0 -0 -0 -0 -0 -0 -0 -0 -0 -0 -0 -0 -0 -0 -0 -0 -0 -0 -0 -8 -16 -6 -7 -8 -11 -5 -1 -3
-2 -0 -5 -5 -1 -0 -1 -1 -3 -4 -2 -0 -0 -0 -0 -0 -0 -0 -0 -0 -0 -0 -0 -0 -0 -0 -0 -0 -0 -0 -0 -0 -0 -0 -0 -0 -0 -0 -0 -0 -2 -3 -3 -3 -2 -4 -6
-0 -1 -0 -0 -1 -1 -2 -1 -2 -0 -0 -0 -0 -0 -0 -0 -0 -0 -0 -0 -0 -0 -0 -0 -0 -0 -0 -0 -0 -0 -0 -0 -0 -0 -0 -0 -0 -0 -0 -0 -0 -7 -3 -4 -0 -0 -19
-0 -0 -0 -0 -0 -1 -0 -0 -0 -0 -0 -0 -0 -0 -0 -0 -0 -0 -0 -0 -0 -0 -0 -0 -0 -0 -0 -0 -0 -0 -0 -0 -0 -0 -0 -0 -0 -0 -0 -0 -0 -5 -4 -5 -0 -0 -24
-0 -0 -0 -0 -0 -0 -0 -0 -0 -0 -0 -0 -0 -0 -0 -0 -0 -0 -0 -0 -0 -0 -0 -0 -0 -0 -0 -0 -0 -0 -0 -0 -0 -0 -0 -0 -0 -0 -0 -0 -0 -0 -0 -2 -1 -2 -6
-0 -0 -0 -0 -0 -0 -3 -4 -2 -0 -0 -0 -0 -0 -0 -0 -0 -0 -0 -0 -0 -0 -0 -0 -0 -0 -0 -0 -0 -0 -0 -0 -0 -0 -0 -0 -0 -0 -0 -0 -0 -0 -0 -5 -6 -8 -3
-0 -0 -0 -0 -0 -0 -7 -8 -5 -0 -0 -0 -0 -0 -0 -0 -0 -0 -0 -0 -0 -0 -0 -0 -0 -0 -0 -0 -0 -0 -0 -0 -0 -0 -0 -0 -0 -0 -0 -0 -0 -0 -0 -10 -16 -46 -38
-0 -0 -0 -0 -0 -0 -0 -9 -4 -0 -0 -0 -0 -0 -0 -0 -0 -0 -0 -0 -0 -0 -0 -0 -0 -0 -0 -0 -0 -0 -0 -0 -0 -0 -0 -0 -0 -0 -0 -0 -0 -0 -0 -5 -17 -28 -12
-0 -0 -0 -0 -0 -0 -0 -0 -0 -0 -0 -0 -0 -0 -0 -0 -0 -0 -0 -0 -0 -0 -0 -0 -0 -0 -0 -0 -0 -0 -0 -0 -0 -0 -0 -3 -5 -0 -0 -0 -0 -7 -4 -3 -7 -22 -23
-0 -0 -0 -0 -1 -0 -0 -0 -2 -0 -0 -0 -0 -0 -0 -0 -0 -0 -0 -0 -0 -0 -0 -0 -0 -0 -3 -3 -4 -0 -0 -1 -0 -0 -0 -0 -2 -0 -0 -0 -0 -0 -0 -2 -12 -13 -9
-0 -0 -1 -0 -0 -0 -0 -0 -0 -0 -0 -0 -0 -0 -0 -0 -0 -0 -0 -0 -0 -0 -0 -0 -0 -0 -0 -0 -0 -8 -9 -6 -0 -0 -0 -0 -3 -7 -0 -0 -0 -8 -5 -2 -6 -0 -6
-0 -0 -0 -3 -0 -0 -0 -0 -0 -0 -0 -0 -0 -0 -0 -0 -0 -0 -0 -0 -0 -0 -0 -0 -0 -0 -0 -0 -0 -0 -0 -6 -7 -0 -0 -0 -0 -9 -35 -9 -0 -0 -4 -5 -10 -14 -41
-0 -0 -0 -0 -0 -0 -0 -0 -0 -0 -0 -0 -0 -0 -0 -0 -0 -0 -0 -0 -0 -0 -0 -0 -0 -0 -0 -0 -0 -0 -1 -4 -0 -0 -0 -0 -4 -0 -20 -34 -67 -1 -0 -5 -5 -8 -8
-0 -0 -0 -0 -0 -0 -0 -0 -0 -0 -0 -0 -0 -0 -0 -0 -0 -0 -0 -0 -0 -0 -0 -0 -0 -0 -0 -0 -0 -0 -0 -2 -0 -0 -0 -0 -1 -9 -10 -0 -8 -17 -5 -6 -4 -4 -7
-0 -0 -0 -0 -0 -0 -0 -0 -0 -0 -0 -0 -0 -0 -0 -0 -0 -0 -0 -0 -0 -0 -0 -2 -0 -0 -0 -0 -0 -2 -3 -0 -4 -9 -20 -0 -0 -0 -40 -8 -21 -8 -7 -3 -11 -6 -2
-0 -0 -1 -0 -0 -0 -0 -0 -0 -0 -0 -0 -3 -0 -0 -0 -0 -0 -0 -0 -0 -0 -0 -0 -0 -3 -4 -3 -4 -2 -10 -5 -5 -6 -8 -7 -8 -7 -10 -23 -5 -5 -7 -5 -5 -6 -3
-0 -1 -1 -0 -0 -0 -0 -0 -0 -0 -0 -1 -1 -0 -0 -0 -0 -0 -0 -0 -0 -0 -0 -0 -0 -3 -3 -0 -0 -0 -0 -0 -0 -15 -27 -21 -4 -4 -7 -6 -15 -5 -19 -10 -4 -8 -5
-0 -0 -1 -0 -0 -0 -9 -4 -6 -0 -0 -1 -1 -1 -1 -0 -0 -0 -1 -0 -0 -0 -0 -0 -0 -0 -0 -0 -0 -0 -0 -0 -0 -0 -0 -6 -5 -13 -6 -6 -32 -22 -14 -26 -0 -0 -4
-1 -2 -1 -0 -0 -0 -4 -1 -6 -0 -0 -3 -4 -1 -0 -1 -1 -1 -2 -1 -4 -2 -4 -2 -0 -0 -0 -0 -1 -2 -0 -6 -4 -0 -6 -9 -8 -9 -16 -7 -24 -37 -20 -15 -0 -0 -0
-1 -0 -0 -0 -0 -0 -0 -0 -0 -13 -0 -0 -2 -1 -1 -1 -0 -0 -1 -2 -3 -2 -5 -1 -3 -0 -0 -0 -0 -5 -5 -5 -8 -9 -6 -8 -8 -10 -6 -7 -22 -11 -33 -16 -0 -1 -5
-0 -0 -0 -0 -0 -0 -0 -0 -5 -10 -0 -0 -1 -0 -0 -0 -1 -1 -1 -1 -2 -2 -3 -3 -3 -2 -0 -4 -4 -4 -5 -4 -3 -12 -2 -10 -5 -8 -6 -9 -8 -2 -7 -10 -4 -5 -0
-0 -0 -0 -0 -0 -0 -0 -11 -0 -3 -0 -0 -1 -0 -0 -0 -0 -0 -0 -0 -0 -2 -2 -0 -3 -6 -6 -4 -5 -5 -8 -7 -2 -7 -5 -21 -35 -8 -7 -5 -12 -45 -27 -5 -16 -3 -0
Wind_Speed
22 21 22 22 21 20 19 18 17 16 16 16 15 14 14 14 13 13 12 12 12 12 12 12 13 14 16 14 15 15 14 14 16 18 20 14 15 18 19 17 14 15 14 15 15 14 10
22 21 20 22 22 22 21 20 19 19 18 17 17 17 17 16 15 15 14 13 13 13 12 13 13 14 15 11 15 15 15 14 15 16 16 7 8 17 20 18 18 13 14 14 14 14 10
21 21 21 22 23 23 22 22 22 22 21 20 20 20 20 19 18 18 17 16 15 13 12 12 13 13 12 15 14 13 13 14 14 16 10 9 18 20 17 12 11 12 13 14 15 15 16
20 20 20 20 21 22 23 23 24 24 24 24 23 24 24 24 23 22 20 19 13 10 11 12 12 12 15 15 13 12 13 13 9 11 24 14 19 24 19 11 9 7 9 9 14 16 17
21 21 21 20 20 20 20 21 22 23 24 25 25 26 26 26 26 24 22 21 16 11 10 11 13 12 11 14 12 13 13 13 13 9 15 18 18 7 12 14 10 6 11 12 12 11 13
24 24 24 24 24 24 24 23 24 24 25 26 25 25 26 25 26 23 22 17 14 13 10 10 8 10 10 12 14 14 13 12 13 9 5 2 10 10 8 28 19 26 19 11 10 9 11
26 27 28 28 28 28 28 28 28 29 29 30 29 29 28 28 28 24 15 14 14 13 7 5 14 11 13 13 14 13 15 15 13 11 10 8 3 8 10 16 18 10 11 13 12 10 8
29 31 32 32 32 32 32 32 33 33 33 33 33 32 32 31 30 23 12 13 18 19 19 5 4 7 12 11 11 12 15 12 11 9 11 3 2 10 23 20 14 14 18 16 14 11 18
33 33 34 34 34 34 34 35 35 35 35 36 36 35 34 33 29 15 12 15 16 23 14 5 5 5 7 8 7 9 12 12 9 9 8 1 6 15 14 20 24 23 16 16 19 13 17
34 35 35 35 35 35 36 36 37 37 36 37 37 36 35 34 19 20 14 12 15 20 15 4 6 6 8 8 7 9 11 10 8 6 9 1 10 14 17 23 21 28 19 17 20 23 18
34 34 35 35 35 36 36 37 37 37 37 37 36 37 35 28 26 15 17 14 19 14 18 10 8 9 9 8 12 7 10 9 7 7 5 6 2 9 17 22 27 27 18 19 23 26 12
33 34 34 35 35 36 36 36 37 37 37 38 38 37 34 16 10 14 19 15 13 8 10 6 6 5 6 6 7 10 9 10 9 5 4 23 11 6 12 17 31 30 21 21 23 27 28
33 34 34 35 35 36 36 36 36 37 38 37 37 36 28 19 14 17 12 6 7 5 13 4 4 7 9 6 6 7 8 7 6 6 6 6 3 9 17 18 9 22 21 24 22 23 26
33 34 34 35 35 36 36 36 37 36 38 39 37 33 14 7 14 12 6 3 4 13 4 13 5 6 8 7 7 7 6 6 11 21 21 6 7 7 5 9 9 14 26 27 21 19 20
33 33 34 34 35 35 36 36 36 37 36 35 31 17 13 13 8 8 2 4 5 7 15 7 2 5 7 7 2 6 6 4 9 12 26 7 18 9 2 8 25 8 37 35 23 34 23
32 32 33 33 33 33 33 33 33 33 33 33 29 15 11 18 7 4 2 7 6 15 18 13 2 4 4 7 3 1 3 4 3 4 28 20 6 5 3 15 27 25 18 30 27 28 28
32 33 33 34 35 35 35 35 36 36 36 31 19 16 14 13 7 3 4 4 5 12 10 9 6 5 4 7 8 4 5 6 1 1 1 27 24 13 5 6 5 11 26 29 29 29 29
33 34 35 35 36 36 36 36 36 36 37 28 19 17 14 10 9 6 9 6 17 15 11 9 13 19 10 10 10 6 5 7 2 9 4 17 25 6 4 14 16 27 17 29 25 26 26
34 34 36 36 37 36 35 35 35 35 33 28 20 20 13 9 15 11 12 16 16 15 12 11 9 10 12 14 17 20 10 14 15 2 18 19 26 30 16 2 7 14 27 27 28 27 12
33 33 35 36 36 35 35 35 34 34 33 26 18 18 12 9 13 20 23 17 16 9 14 18 16 17 17 15 17 19 20 16 17 18 20 26 29 31 34 22 23 4 20 29 29 27 24
34 34 34 34 34 35 35 34 34 34 33 22 15 18 19 16 14 18 18 18 20 15 9 16 13 17 18 20 20 17 22 26 13 19 25 28 27 36 37 6 27 8 9 17 28 34 33
34 34 34 33 34 34 34 34 33 34 34 17 20 22 21 21 20 17 15 17 18 17 16 13 13 20 17 20 24 25 25 32 33 15 19 21 23 38 39 36 16 26 24 25 28 27 33
33 33 33 33 33 33 33 33 30 33 30 20 23 22 20 22 19 18 17 18 18 20 19 18 24 23 19 19 27 30 32 30 25 27 23 21 22 20 34 36 28 32 30 30 31 32 30
32 33 33 32 31 31 30 29 28 30 28 24 23 23 23 27 23 21 23 19 18 19 20 25 25 21 26 32 31 34 35 37 39 38 35 30 31 36 34 32 38 32 20 25 26 30 26
30 32 32 31 30 30 30 29 26 27 27 24 22 21 22 24 25 24 22 22 21 21 19 22 28 31 32 34 36 38 36 39 43 42 39 35 34 33 34 32 22 36 21 27 29 32 25
31 32 32 31 30 29 30 26 25 26 26 23 23 18 18 22 21 22 22 22 22 22 23 22 24 25 26 30 33 37 39 37 38 40 37 39 34 40 26 45 33 37 20 14 21 27 22
30 30 30 30 29 28 28 26 23 24 24 23 20 21 19 21 24 22 22 24 25 25 25 26 23 24 24 26 31 36 41 37 41 38 36 37 37 35 42 34 39 20 27 12 22 24 18
27 28 28 28 27 26 25 25 23 23 23 22 22 20 21 23 30 32 31 28 24 22 23 19 26 20 23 26 31 33 38 39 40 41 41 34 37 40 40 43 35 25 16 12 20 17 16
26 26 26 26 25 26 25 24 25 22 23 21 21 20 20 21 24 39 38 37 33 30 27 28 29 24 19 23 26 25 29 34 33 42 32 31 43 39 37 37 32 14 26 17 20 16 16
Wind_Direction
346 343 342 341 339 336 332 327 324 320 317 312 307 301 294 286 273 258 243 222 201 177 158 147 138 136 130 110 32 71 102 112 129 147 163 133 155 232 238 314 353 354 0 25 51 41 19
339 334 332 335 335 334 331 328 324 321 317 312 309 307 301 295 283 270 252 231 206 183 156 137 125 120 117 108 61 83 111 117 130 139 142 159 259 298 275 301 312 3 30 43 56 51 39
329 328 326 328 329 329 327 325 324 322 318 315 312 309 307 301 292 281 267 243 211 170 146 123 108 108 120 48 79 94 116 129 133 144 118 312 282 239 304 358 0 57 49 58 50 53 49
320 317 316 317 319 320 321 321 322 322 320 316 314 313 311 307 302 293 282 263 192 121 110 103 96 98 58 75 98 101 119 130 113 128 236 292 281 253 278 344 29 57 350 310 43 63 78
314 312 311 310 309 308 308 309 310 313 315 315 312 313 311 310 305 298 296 319 358 54 59 64 54 73 56 70 103 106 120 129 134 120 277 275 282 186 312 150 120 15 323 353 15 53 74
311 310 309 307 308 307 306 306 307 307 309 311 308 306 306 304 301 290 297 5 23 32 40 46 51 47 54 61 84 88 106 114 125 114 97 7 311 309 308 216 288 275 268 330 21 30 92
308 310 311 310 309 310 309 308 308 310 311 312 311 308 306 305 304 293 7 27 13 17 73 88 4 22 43 54 75 92 99 107 115 123 135 138 299 290 289 294 296 315 16 329 338 354 34
311 314 317 317 316 315 314 314 313 313 315 315 312 310 309 306 306 321 20 2 351 344 338 46 55 26 20 65 69 81 109 102 110 130 145 64 214 292 276 288 296 301 295 309 325 334 275
319 320 321 323 321 319 318 319 319 317 317 316 314 312 308 304 300 356 355 341 350 330 348 37 68 94 87 75 80 93 117 128 105 136 145 226 325 284 296 278 273 273 287 294 292 315 283
324 324 324 325 325 322 320 320 320 320 318 316 313 311 308 301 340 331 348 0 351 341 351 80 87 75 97 87 56 85 123 105 98 134 151 182 244 297 284 270 269 261 281 287 283 273 289
327 327 327 326 325 323 322 322 321 318 317 313 310 308 306 324 310 338 334 341 331 354 346 72 75 77 102 87 42 68 105 113 112 114 113 152 172 285 281 268 252 256 276 283 277 270 297
329 329 327 325 324 322 321 321 320 316 312 310 308 308 309 348 355 326 321 330 338 1 344 35 43 98 113 135 40 54 95 128 121 69 109 216 320 306 285 276 248 252 279 280 274 260 269
332 330 328 327 325 325 323 322 320 318 313 306 300 299 321 331 345 332 339 14 354 333 349 27 89 123 140 119 95 82 108 112 96 85 120 143 146 307 283 277 269 258 263 262 270 267 271
333 332 331 328 326 326 325 325 319 311 311 308 297 289 348 8 339 342 6 68 319 332 205 355 112 129 155 131 134 109 107 139 158 191 231 99 121 145 316 159 283 258 249 247 264 282 274
338 334 334 331 329 328 327 323 319 314 308 303 291 348 359 4 16 357 47 194 313 324 326 351 41 175 164 173 58 143 149 142 158 158 207 342 284 104 118 151 251 268 232 229 274 238 275
334 329 328 325 322 320 316 314 311 308 305 304 323 359 3 340 7 26 306 216 306 315 322 331 288 174 209 175 174 217 147 129 142 122 193 286 338 86 53 277 248 255 263 248 262 264 269
332 329 328 330 329 326 322 324 324 320 312 302 355 350 358 357 14 351 264 255 263 312 326 324 313 226 263 205 199 206 319 327 103 300 240 235 251 309 81 133 163 265 258 256 264 264 268
337 333 332 335 334 333 329 329 330 328 322 336 347 347 0 12 339 316 299 286 311 309 313 297 310 302 296 301 290 264 231 305 351 281 203 253 260 309 106 160 163 259 275 245 261 262 266
338 336 333 333 334 335 332 328 329 327 337 337 342 333 358 353 326 317 313 309 306 305 303 305 282 297 299 297 297 285 259 291 302 229 273 271 264 252 278 19 141 281 260 260 257 264 291
341 341 338 337 336 337 333 328 325 325 331 340 346 342 354 340 320 313 312 310 310 304 299 300 298 293 293 287 287 288 277 281 288 282 276 266 259 255 245 277 281 208 254 252 252 259 264
340 339 339 340 340 337 335 335 334 326 323 345 346 339 332 334 337 320 318 315 312 308 305 311 286 284 280 280 280 275 275 271 290 278 269 261 270 254 254 284 265 286 285 269 261 247 256
341 339 336 337 336 337 336 337 337 331 321 353 334 328 327 315 317 319 317 311 304 303 309 308 295 293 285 275 280 278 276 269 266 277 266 261 260 253 255 254 280 267 271 268 262 267 260
344 342 338 335 335 337 338 339 345 339 336 343 339 327 322 317 317 312 312 314 309 313 304 301 300 298 291 288 285 279 277 272 275 268 279 260 265 269 265 246 270 262 265 267 264 262 266
343 340 339 339 337 338 341 346 347 343 342 336 335 327 318 308 309 309 311 314 308 306 303 298 295 288 282 283 291 281 273 268 261 259 260 265 262 260 266 264 257 262 285 275 275 269 272
344 342 342 343 341 340 339 341 345 344 343 339 337 332 324 311 310 310 310 307 306 302 296 292 287 284 285 282 279 275 271 265 257 255 255 257 260 261 261 263 274 257 283 274 275 270 274
340 340 340 341 341 342 341 345 346 344 343 342 337 340 329 319 326 323 315 312 309 306 302 294 293 290 287 281 274 268 264 264 259 254 254 252 254 254 262 252 264 251 291 295 280 275 277
342 342 341 341 341 343 343 345 344 343 343 341 336 331 324 313 309 312 309 311 310 304 301 297 299 294 286 278 271 266 262 262 258 256 249 246 248 249 251 259 259 224 273 293 273 278 297
344 345 345 344 345 346 345 346 347 345 342 341 333 332 325 313 302 299 299 300 302 300 297 305 305 292 285 276 272 268 264 259 257 256 252 246 243 247 250 249 255 277 267 269 292 293 297
345 346 347 348 347 344 342 341 340 342 341 341 332 339 335 320 309 290 286 278 283 286 292 290 283 295 302 288 277 278 271 260 260 251 256 245 247 246 251 253 258 273 265 279 283 291 292